Regional Weather Roundup
Issued by NWS

Home | Current Version | Previous Version | Graphics & Text | Print | Product List | Glossary On
Versions: 1 2 3 4 5 6 7 8 9 10 11 12 13 14 15 16 17 18 19 20 21 22 23 24 25 26 27 28 29 30 31 32 33 34 35 36 37 38 39 40 41 42 43 44 45 46 47 48 49 50
000
ASUS44 KMEG 032310
RWRTN
TENNESSEE HOURLY STATE WEATHER ROUNDUP
NATIONAL WEATHER SERVICE MEMPHIS TN
600 PM CDT FRI JUL 03 2015

TNZ002-004-019-021-049-052-054-088>092-040000-
WEST TENNESSEE

CITY           SKY/WX    TMP DP  RH WIND       PRES   REMARKS
MEMPHIS INTL   CLOUDY    76  71  85 SW8       29.91S
NWS MEMPHIS      N/A     76 N/A N/A MISG        N/A
JACKSON        PTSUNNY   78  70  76 SW13      29.89S
DYERSBURG        N/A    N/A N/A N/A MISG        N/A
PARIS          CLOUDY    73  66  78 SW10      29.90R
LEXINGTON      CLOUDY    73  70  88 S8        29.89S
$$

TNZ008-025-027-028-033-062-065-066-040000-
NORTH MIDDLE TENNESSEE

CITY           SKY/WX    TMP DP  RH WIND       PRES   REMARKS
NASHVILLE      CLOUDY    75  69  81 SW7       29.91R
CLARKSVILLE    CLOUDY    77  69  76 SW7       29.88R
SMYRNA         CLOUDY    76  68  76 W10       29.92R
COOKEVILLE     PTSUNNY   77  72  83 SW8       29.92S
CROSSVILLE     PTSUNNY   73  66  78 W9G17     29.97S
$$

TNZ061-075-076-078-094-096-097-040000-
SOUTH MIDDLE TENNESSEE

CITY           SKY/WX    TMP DP  RH WIND       PRES   REMARKS
FAYETTEVILLE     N/A     72  64  78 W13       29.93F
TULLAHOMA      MOSUNNY   73  66  78 SW6       29.96S
WINCHESTER     SUNNY     73  66  78 W6        29.96S
MCMINNVILLE    SUNNY     75  68  78 SW15      29.94S
COLUMBIA       SUNNY     75  70  83 SW10      29.90F
SHELBYVILLE    SUNNY     75  70  83 W9          N/A
$$

TNZ017-018-042-046-047-040000-
NORTHEAST TENNESSEE

CITY           SKY/WX    TMP DP  RH WIND       PRES   REMARKS
TRI CITIES     CLOUDY    72  68  87 W6        29.93S
ELIZABETHTON   HVY RAIN  68  66  94 W8        29.94R FOG
$$

TNZ012-013-036-069-073-074-040000-
CENTRAL EAST TENNESSEE

CITY           SKY/WX    TMP DP  RH WIND       PRES   REMARKS
KNOXVILLE      PTSUNNY   75  68  78 SW17      29.92S
OAK RIDGE      CLOUDY    77  68  73 VRB6      29.92S
GATLINBURG     CLOUDY    73  68  83 SW12      29.92S
MORRISTOWN     PTCLDY    75  70  83 SW15      29.93R
$$

TNZ083-085-099-040000-
SOUTHEAST TENNESSEE

CITY           SKY/WX    TMP DP  RH WIND       PRES   REMARKS
CHATTANOOGA    PTSUNNY   78  65  63 SW9       29.93F
$$

SKY/WX REPORTED AS FAIR MEANS FEW OR NO CLOUDS BELOW
12 THOUSAND FEET.




USA.gov is the U.S. government's official web portal to all federal, state and local government web resources and services.